Year,Month,Day,Hour,Minute,Value (Times are PST for temperature in C)
2014,09,17,00,00,15.10
2014,09,17,00,01,15.20
2014,09,17,00,02,15.20
2014,09,17,00,03,15.20
2014,09,17,00,04,15.20
2014,09,17,00,05,15.10
2014,09,17,00,06,15.10
2014,09,17,00,07,15.10
2014,09,17,00,08,15.10
2014,09,17,00,09,15.10
2014,09,17,00,10,15.10
2014,09,17,00,11,15.10
2014,09,17,00,12,15.10
2014,09,17,00,13,15.10
2014,09,17,00,14,15.10
2014,09,17,00,15,15.10
2014,09,17,00,16,15.10
2014,09,17,00,17,15.10
2014,09,17,00,18,15.10
2014,09,17,00,19,15.10
2014,09,17,00,20,15.10
2014,09,17,00,21,15.00
2014,09,17,00,22,15.00
2014,09,17,00,23,15.00
2014,09,17,00,24,15.10
2014,09,17,00,25,15.10
2014,09,17,00,26,15.10
2014,09,17,00,27,15.10
2014,09,17,00,28,15.10
2014,09,17,00,29,15.10
2014,09,17,00,30,15.10
2014,09,17,00,31,15.00
2014,09,17,00,32,15.00
2014,09,17,00,33,15.00
2014,09,17,00,34,15.00
2014,09,17,00,35,14.90
2014,09,17,00,36,14.90
2014,09,17,00,37,14.90
2014,09,17,00,38,14.90
2014,09,17,00,39,14.90
2014,09,17,00,40,14.90
2014,09,17,00,41,14.90
2014,09,17,00,42,14.90
2014,09,17,00,43,14.90
2014,09,17,00,44,15.00
2014,09,17,00,45,15.00
2014,09,17,00,46,15.00
2014,09,17,00,47,15.00
2014,09,17,00,48,15.00
2014,09,17,00,49,15.00
2014,09,17,00,50,15.00
2014,09,17,00,51,15.00
2014,09,17,00,52,15.00
2014,09,17,00,53,15.00
2014,09,17,00,54,15.00
2014,09,17,00,55,15.00
2014,09,17,00,56,15.00
2014,09,17,00,57,15.00
2014,09,17,00,58,15.00
2014,09,17,00,59,15.00
2014,09,17,01,00,15.00
2014,09,17,01,01,15.00
2014,09,17,01,02,15.00
2014,09,17,01,03,15.10
2014,09,17,01,04,15.10
2014,09,17,01,05,15.10
2014,09,17,01,06,15.10
2014,09,17,01,07,15.10
2014,09,17,01,08,15.10
2014,09,17,01,09,15.10
2014,09,17,01,10,15.10
2014,09,17,01,11,15.10
2014,09,17,01,12,15.10
2014,09,17,01,13,15.10
2014,09,17,01,14,15.10
2014,09,17,01,15,15.10
2014,09,17,01,16,15.10
2014,09,17,01,17,15.10
2014,09,17,01,18,15.10
2014,09,17,01,19,15.10
2014,09,17,01,20,15.10
2014,09,17,01,21,15.10
2014,09,17,01,22,15.10
2014,09,17,01,23,15.10
2014,09,17,01,24,15.10
2014,09,17,01,25,15.10
2014,09,17,01,26,15.10
2014,09,17,01,27,15.10
2014,09,17,01,28,15.10
2014,09,17,01,29,15.10
2014,09,17,01,30,15.10
2014,09,17,01,31,15.10
2014,09,17,01,32,15.10
2014,09,17,01,33,15.10
2014,09,17,01,34,15.10
2014,09,17,01,35,15.10
2014,09,17,01,36,15.10
2014,09,17,01,37,15.10
2014,09,17,01,38,15.10
2014,09,17,01,39,15.10
2014,09,17,01,40,15.10
2014,09,17,01,41,15.10
2014,09,17,01,42,15.10
2014,09,17,01,43,15.10
2014,09,17,01,44,15.10
2014,09,17,01,45,15.10
2014,09,17,01,46,15.10
2014,09,17,01,47,15.00
2014,09,17,01,48,15.00
2014,09,17,01,49,14.90
2014,09,17,01,50,14.90
2014,09,17,01,51,14.90
2014,09,17,01,52,14.90
2014,09,17,01,53,14.80
2014,09,17,01,54,14.80
2014,09,17,01,55,14.80
2014,09,17,01,56,14.80
2014,09,17,01,57,14.70
2014,09,17,01,58,14.70
2014,09,17,01,59,14.70
2014,09,17,02,00,14.60
2014,09,17,02,01,14.60
2014,09,17,02,02,14.50
2014,09,17,02,03,14.50
2014,09,17,02,04,14.40
2014,09,17,02,05,14.40
2014,09,17,02,06,14.30
2014,09,17,02,07,14.30
2014,09,17,02,08,14.30
2014,09,17,02,09,14.30
2014,09,17,02,10,14.20
2014,09,17,02,11,14.20
2014,09,17,02,12,14.20
2014,09,17,02,13,14.20
2014,09,17,02,14,14.20
2014,09,17,02,15,14.10
2014,09,17,02,16,14.10
2014,09,17,02,17,14.10
2014,09,17,02,18,14.10
2014,09,17,02,19,14.00
2014,09,17,02,20,14.00
2014,09,17,02,21,13.90
2014,09,17,02,22,13.90
2014,09,17,02,23,13.90
2014,09,17,02,24,13.80
2014,09,17,02,25,13.80
2014,09,17,02,26,13.80
2014,09,17,02,27,13.80
2014,09,17,02,28,13.80
2014,09,17,02,29,13.80
2014,09,17,02,30,13.80
2014,09,17,02,31,13.70
2014,09,17,02,32,13.70
2014,09,17,02,33,13.70
2014,09,17,02,34,13.70
2014,09,17,02,35,13.70
2014,09,17,02,36,13.70
2014,09,17,02,37,13.70
2014,09,17,02,38,13.70
2014,09,17,02,39,13.70
2014,09,17,02,40,13.70
2014,09,17,02,41,13.70
2014,09,17,02,42,13.70
2014,09,17,02,43,13.70
2014,09,17,02,44,13.70
2014,09,17,02,45,13.70
2014,09,17,02,46,13.60
2014,09,17,02,47,13.60
2014,09,17,02,48,13.60
2014,09,17,02,49,13.60
2014,09,17,02,50,13.60
2014,09,17,02,51,13.60
2014,09,17,02,52,13.60
2014,09,17,02,53,13.60
2014,09,17,02,54,13.60
2014,09,17,02,55,13.60
2014,09,17,02,56,13.60
2014,09,17,02,57,13.60
2014,09,17,02,58,13.60
2014,09,17,02,59,13.60
2014,09,17,03,00,13.60
2014,09,17,03,01,13.60
2014,09,17,03,02,13.60
2014,09,17,03,03,13.60
2014,09,17,03,04,13.60
2014,09,17,03,05,13.60
2014,09,17,03,06,13.60
2014,09,17,03,07,13.60
2014,09,17,03,08,13.70
2014,09,17,03,09,13.70
2014,09,17,03,10,13.70
2014,09,17,03,11,13.70
2014,09,17,03,12,13.70
2014,09,17,03,13,13.70
2014,09,17,03,14,13.70
2014,09,17,03,15,13.70
2014,09,17,03,16,13.70
2014,09,17,03,17,13.70
2014,09,17,03,18,13.70
2014,09,17,03,19,13.80
2014,09,17,03,20,13.80
2014,09,17,03,21,13.80
2014,09,17,03,22,13.80
2014,09,17,03,23,13.80
2014,09,17,03,24,13.80
2014,09,17,03,25,13.80
2014,09,17,03,26,13.80
2014,09,17,03,27,13.80
2014,09,17,03,28,13.80
2014,09,17,03,29,13.80
2014,09,17,03,30,13.80
2014,09,17,03,31,13.90
2014,09,17,03,32,13.90
2014,09,17,03,33,13.90
2014,09,17,03,34,13.90
2014,09,17,03,35,13.90
2014,09,17,03,36,13.90
2014,09,17,03,37,13.90
2014,09,17,03,38,13.90
2014,09,17,03,39,13.90
2014,09,17,03,40,13.90
2014,09,17,03,41,13.90
2014,09,17,03,42,13.90
2014,09,17,03,43,13.90
2014,09,17,03,44,13.90
2014,09,17,03,45,13.90
2014,09,17,03,46,13.90
2014,09,17,03,47,13.90
2014,09,17,03,48,13.90
2014,09,17,03,49,13.90
2014,09,17,03,50,13.90
2014,09,17,03,51,14.00
2014,09,17,03,52,14.00
2014,09,17,03,53,14.00
2014,09,17,03,54,14.00
2014,09,17,03,55,14.00
2014,09,17,03,56,14.00
2014,09,17,03,57,14.00
2014,09,17,03,58,14.00
2014,09,17,03,59,14.00
2014,09,17,04,00,14.00
2014,09,17,04,01,14.00
2014,09,17,04,02,14.00
2014,09,17,04,03,14.00
2014,09,17,04,04,14.00
2014,09,17,04,05,14.10
2014,09,17,04,06,14.10
2014,09,17,04,07,14.10
2014,09,17,04,08,14.10
2014,09,17,04,09,14.10
2014,09,17,04,10,14.10
2014,09,17,04,11,14.10
2014,09,17,04,12,14.10
2014,09,17,04,13,14.10
2014,09,17,04,14,14.10
2014,09,17,04,15,14.10
2014,09,17,04,16,14.20
2014,09,17,04,17,14.20
2014,09,17,04,18,14.20
2014,09,17,04,19,14.20
2014,09,17,04,20,14.20
2014,09,17,04,21,14.20
2014,09,17,04,22,14.20
2014,09,17,04,23,14.20
2014,09,17,04,24,14.20
2014,09,17,04,25,14.10
2014,09,17,04,26,14.10
2014,09,17,04,27,14.10
2014,09,17,04,28,14.00
2014,09,17,04,29,14.00
2014,09,17,04,30,14.00
2014,09,17,04,31,13.90
2014,09,17,04,32,13.90
2014,09,17,04,33,13.90
2014,09,17,04,34,13.80
2014,09,17,04,35,13.80
2014,09,17,04,36,13.80
2014,09,17,04,37,13.70
2014,09,17,04,38,13.70
2014,09,17,04,39,13.70
2014,09,17,04,40,13.70
2014,09,17,04,41,13.60
2014,09,17,04,42,13.60
2014,09,17,04,43,13.60
2014,09,17,04,44,13.60
2014,09,17,04,45,13.60
2014,09,17,04,46,13.60
2014,09,17,04,47,13.60
2014,09,17,04,48,13.60
2014,09,17,04,49,13.60
2014,09,17,04,50,13.60
2014,09,17,04,51,13.60
2014,09,17,04,52,13.60
2014,09,17,04,53,13.60
2014,09,17,04,54,13.60
2014,09,17,04,55,13.60
2014,09,17,04,56,13.60
2014,09,17,04,57,13.60
2014,09,17,04,58,13.60
2014,09,17,04,59,13.60
2014,09,17,05,00,13.60
2014,09,17,05,01,13.60
2014,09,17,05,02,13.60
2014,09,17,05,03,13.60
2014,09,17,05,04,13.60
2014,09,17,05,05,13.60
2014,09,17,05,06,13.60
2014,09,17,05,07,13.60
2014,09,17,05,08,13.50
2014,09,17,05,09,13.50
2014,09,17,05,10,13.50
2014,09,17,05,11,13.50
2014,09,17,05,12,13.50
2014,09,17,05,13,13.50
2014,09,17,05,14,13.50
2014,09,17,05,15,13.40
2014,09,17,05,16,13.40
2014,09,17,05,17,13.40
2014,09,17,05,18,13.40
2014,09,17,05,19,13.40
2014,09,17,05,20,13.40
2014,09,17,05,21,13.40
2014,09,17,05,22,13.40
2014,09,17,05,23,13.40
2014,09,17,05,24,13.40
2014,09,17,05,25,13.40
2014,09,17,05,26,13.40
2014,09,17,05,27,13.40
2014,09,17,05,28,13.40
2014,09,17,05,29,13.40
2014,09,17,05,30,13.40
2014,09,17,05,31,13.40
2014,09,17,05,32,13.40
2014,09,17,05,33,13.40
2014,09,17,05,34,13.40
2014,09,17,05,35,13.40
2014,09,17,05,36,13.40
2014,09,17,05,37,13.40
2014,09,17,05,38,13.40
2014,09,17,05,39,13.40
2014,09,17,05,40,13.30
2014,09,17,05,41,13.40
2014,09,17,05,42,13.40
2014,09,17,05,43,13.40
2014,09,17,05,44,13.40
2014,09,17,05,45,13.40
2014,09,17,05,46,13.40
2014,09,17,05,47,13.40
2014,09,17,05,48,13.40
2014,09,17,05,49,13.40
2014,09,17,05,50,13.40
2014,09,17,05,51,13.40
2014,09,17,05,52,13.40
2014,09,17,05,53,13.40
2014,09,17,05,54,13.40
2014,09,17,05,55,13.40
2014,09,17,05,56,13.40
2014,09,17,05,57,13.40
2014,09,17,05,58,13.40
2014,09,17,05,59,13.40
2014,09,17,06,00,13.40
2014,09,17,06,01,13.40
2014,09,17,06,02,13.40
2014,09,17,06,03,13.40
2014,09,17,06,04,13.40
2014,09,17,06,05,13.40
2014,09,17,06,06,13.40
2014,09,17,06,07,13.40
2014,09,17,06,08,13.40
2014,09,17,06,09,13.50
2014,09,17,06,10,13.50
2014,09,17,06,11,13.50
2014,09,17,06,12,13.50
2014,09,17,06,13,13.50
2014,09,17,06,14,13.50
2014,09,17,06,15,13.50
2014,09,17,06,16,13.50
2014,09,17,06,17,13.50
2014,09,17,06,18,13.50
2014,09,17,06,19,13.50
2014,09,17,06,20,13.50
2014,09,17,06,21,13.40
2014,09,17,06,22,13.40
2014,09,17,06,23,13.40
2014,09,17,06,24,13.40
2014,09,17,06,25,13.40
2014,09,17,06,26,13.40
2014,09,17,06,27,13.40
2014,09,17,06,28,13.40
2014,09,17,06,29,13.40
2014,09,17,06,30,13.40
2014,09,17,06,31,13.40
2014,09,17,06,32,13.40
2014,09,17,06,33,13.40
2014,09,17,06,34,13.40
2014,09,17,06,35,13.40
2014,09,17,06,36,13.40
2014,09,17,06,37,13.40
2014,09,17,06,38,13.40
2014,09,17,06,39,13.40
2014,09,17,06,40,13.40
2014,09,17,06,41,13.40
2014,09,17,06,42,13.40
2014,09,17,06,43,13.40
2014,09,17,06,44,13.40
2014,09,17,06,45,13.40
2014,09,17,06,46,13.40
2014,09,17,06,47,13.40
2014,09,17,06,48,13.50
2014,09,17,06,49,13.50
2014,09,17,06,50,13.50
2014,09,17,06,51,13.50
2014,09,17,06,52,13.50
2014,09,17,06,53,13.60
2014,09,17,06,54,13.60
2014,09,17,06,55,13.60
2014,09,17,06,56,13.50
2014,09,17,06,57,13.50
2014,09,17,06,58,13.50
2014,09,17,06,59,13.50
2014,09,17,07,00,13.50
2014,09,17,07,01,13.50
2014,09,17,07,02,13.50
2014,09,17,07,03,13.50
2014,09,17,07,04,13.50
2014,09,17,07,05,13.50
2014,09,17,07,06,13.50
2014,09,17,07,07,13.50
2014,09,17,07,08,13.50
2014,09,17,07,09,13.50
2014,09,17,07,10,13.50
2014,09,17,07,11,13.50
2014,09,17,07,12,13.50
2014,09,17,07,13,13.60
2014,09,17,07,14,13.60
2014,09,17,07,15,13.60
2014,09,17,07,16,13.60
2014,09,17,07,17,13.60
2014,09,17,07,18,13.60
2014,09,17,07,19,13.60
2014,09,17,07,20,13.70
2014,09,17,07,21,13.70
2014,09,17,07,22,13.70
2014,09,17,07,23,13.70
2014,09,17,07,24,13.70
2014,09,17,07,25,13.70
2014,09,17,07,26,13.70
2014,09,17,07,27,13.70
2014,09,17,07,28,13.70
2014,09,17,07,29,13.60
2014,09,17,07,30,13.60
2014,09,17,07,31,13.60
2014,09,17,07,32,13.60
2014,09,17,07,33,13.50
2014,09,17,07,34,13.50
2014,09,17,07,35,13.50
2014,09,17,07,36,13.50
2014,09,17,07,37,13.40
2014,09,17,07,38,13.40
2014,09,17,07,39,13.40
2014,09,17,07,40,13.40
2014,09,17,07,41,13.40
2014,09,17,07,42,13.40
2014,09,17,07,43,13.40
2014,09,17,07,44,13.40
2014,09,17,07,45,13.40
2014,09,17,07,46,13.40
2014,09,17,07,47,13.40
2014,09,17,07,48,13.40
2014,09,17,07,49,13.40
2014,09,17,07,50,13.40
2014,09,17,07,51,13.40
2014,09,17,07,52,13.40
2014,09,17,07,53,13.40
2014,09,17,07,54,13.40
2014,09,17,07,55,13.50
2014,09,17,07,56,13.50
2014,09,17,07,57,13.50
2014,09,17,07,58,13.60
2014,09,17,07,59,13.60
2014,09,17,08,00,13.60
2014,09,17,08,01,13.60
2014,09,17,08,02,13.60
2014,09,17,08,03,13.60
2014,09,17,08,04,13.70
2014,09,17,08,05,13.70
2014,09,17,08,06,13.70
2014,09,17,08,07,13.70
2014,09,17,08,08,13.70
2014,09,17,08,09,13.80
2014,09,17,08,10,13.80
2014,09,17,08,11,13.80
2014,09,17,08,12,13.80
2014,09,17,08,13,13.80
2014,09,17,08,14,13.80
2014,09,17,08,15,13.80
2014,09,17,08,16,13.90
2014,09,17,08,17,13.90
2014,09,17,08,18,13.90
2014,09,17,08,19,13.90
2014,09,17,08,20,13.90
2014,09,17,08,21,14.00
2014,09,17,08,22,14.00
2014,09,17,08,23,14.00
2014,09,17,08,24,14.00
2014,09,17,08,25,14.00
2014,09,17,08,26,14.10
2014,09,17,08,27,14.10
2014,09,17,08,28,14.10
2014,09,17,08,29,14.10
2014,09,17,08,30,14.20
2014,09,17,08,31,14.20
2014,09,17,08,32,14.20
2014,09,17,08,33,14.20
2014,09,17,08,34,14.30
2014,09,17,08,35,14.30
2014,09,17,08,36,14.30
2014,09,17,08,37,14.30
2014,09,17,08,38,14.40
2014,09,17,08,39,14.40
2014,09,17,08,40,14.30
2014,09,17,08,41,14.30
2014,09,17,08,42,14.30
2014,09,17,08,43,14.30
2014,09,17,08,44,14.30
2014,09,17,08,45,14.30
2014,09,17,08,46,14.30
2014,09,17,08,47,14.30
2014,09,17,08,48,14.30
2014,09,17,08,49,14.30
2014,09,17,08,50,14.30
2014,09,17,08,51,14.30
2014,09,17,08,52,14.30
2014,09,17,08,53,14.30
2014,09,17,08,54,14.30
2014,09,17,08,55,14.30
2014,09,17,08,56,14.30
2014,09,17,08,57,14.30
2014,09,17,08,58,14.30
2014,09,17,08,59,14.30
2014,09,17,09,00,14.30
2014,09,17,09,01,14.40
2014,09,17,09,02,14.40
2014,09,17,09,03,14.40
2014,09,17,09,04,14.50
2014,09,17,09,05,14.50
2014,09,17,09,06,14.50
2014,09,17,09,07,14.60
2014,09,17,09,08,14.60
2014,09,17,09,09,14.70
2014,09,17,09,10,14.70
2014,09,17,09,11,14.70
2014,09,17,09,12,14.80
2014,09,17,09,13,14.80
2014,09,17,09,14,14.90
2014,09,17,09,15,14.90
2014,09,17,09,16,15.00
2014,09,17,09,17,15.00
2014,09,17,09,18,15.10
2014,09,17,09,19,15.10
2014,09,17,09,20,15.20
2014,09,17,09,21,15.30
2014,09,17,09,22,15.30
2014,09,17,09,23,15.30
2014,09,17,09,24,15.40
2014,09,17,09,25,15.40
2014,09,17,09,26,15.50
2014,09,17,09,27,15.60
2014,09,17,09,28,15.70
2014,09,17,09,29,15.70
2014,09,17,09,30,15.80
2014,09,17,09,31,15.80
2014,09,17,09,32,15.90
2014,09,17,09,33,16.00
2014,09,17,09,34,16.00
2014,09,17,09,35,16.10
2014,09,17,09,36,16.10
2014,09,17,09,37,16.10
2014,09,17,09,38,16.20
2014,09,17,09,39,16.20
2014,09,17,09,40,16.10
2014,09,17,09,41,16.10
2014,09,17,09,42,16.10
2014,09,17,09,43,16.00
2014,09,17,09,44,16.00
2014,09,17,09,45,15.90
2014,09,17,09,46,15.90
2014,09,17,09,47,15.80
2014,09,17,09,48,15.80
2014,09,17,09,49,15.80
2014,09,17,09,50,15.70
2014,09,17,09,51,15.70
2014,09,17,09,52,15.70
2014,09,17,09,53,15.80
2014,09,17,09,54,15.80
2014,09,17,09,55,15.80
2014,09,17,09,56,15.90
2014,09,17,09,57,15.90
2014,09,17,09,58,15.90
2014,09,17,09,59,15.90
2014,09,17,10,00,16.00
2014,09,17,10,01,16.00
2014,09,17,10,02,16.10
2014,09,17,10,03,16.10
2014,09,17,10,04,16.20
2014,09,17,10,05,16.20
2014,09,17,10,06,16.30
2014,09,17,10,07,16.30
2014,09,17,10,08,16.30
2014,09,17,10,09,16.30
2014,09,17,10,10,16.40
2014,09,17,10,11,16.40
2014,09,17,10,12,16.40
2014,09,17,10,13,16.50
2014,09,17,10,14,16.50
2014,09,17,10,15,16.50
2014,09,17,10,16,16.50
2014,09,17,10,17,16.50
2014,09,17,10,18,16.50
2014,09,17,10,19,16.50
2014,09,17,10,20,16.50
2014,09,17,10,21,16.60
2014,09,17,10,22,16.60
2014,09,17,10,23,16.60
2014,09,17,10,24,16.60
2014,09,17,10,25,16.70
2014,09,17,10,26,16.70
2014,09,17,10,27,16.70
2014,09,17,10,28,16.80
2014,09,17,10,29,16.80
2014,09,17,10,30,16.80
2014,09,17,10,31,16.80
2014,09,17,10,32,16.80
2014,09,17,10,33,16.80
2014,09,17,10,34,16.80
2014,09,17,10,35,16.80
2014,09,17,10,36,16.80
2014,09,17,10,37,16.90
2014,09,17,10,38,16.90
2014,09,17,10,39,16.90
2014,09,17,10,40,17.00
2014,09,17,10,41,17.00
2014,09,17,10,42,17.10
2014,09,17,10,43,17.10
2014,09,17,10,44,17.10
2014,09,17,10,45,17.20
2014,09,17,10,46,17.20
2014,09,17,10,47,17.20
2014,09,17,10,48,17.30
2014,09,17,10,49,17.40
2014,09,17,10,50,17.40
2014,09,17,10,51,17.50
2014,09,17,10,52,17.60
2014,09,17,10,53,17.70
2014,09,17,10,54,17.70
2014,09,17,10,55,17.70
2014,09,17,10,56,17.70
2014,09,17,10,57,17.80
2014,09,17,10,58,17.80
2014,09,17,10,59,17.80
2014,09,17,11,00,17.80
2014,09,17,11,01,17.90
2014,09,17,11,02,17.90
2014,09,17,11,03,18.00
2014,09,17,11,04,18.00
2014,09,17,11,05,18.00
2014,09,17,11,06,18.00
2014,09,17,11,07,18.10
2014,09,17,11,08,18.10
2014,09,17,11,09,18.20
2014,09,17,11,10,18.20
2014,09,17,11,11,18.30
2014,09,17,11,12,18.40
2014,09,17,11,13,18.40
2014,09,17,11,14,18.50
2014,09,17,11,15,18.60
2014,09,17,11,16,18.60
2014,09,17,11,17,18.60
2014,09,17,11,18,18.60
2014,09,17,11,19,18.60
2014,09,17,11,20,18.50
2014,09,17,11,21,18.50
2014,09,17,11,22,18.40
2014,09,17,11,23,18.40
2014,09,17,11,24,18.40
2014,09,17,11,25,18.50
2014,09,17,11,26,18.50
2014,09,17,11,27,18.50
2014,09,17,11,28,18.50
2014,09,17,11,29,18.40
2014,09,17,11,30,18.30
2014,09,17,11,31,18.20
2014,09,17,11,32,18.10
2014,09,17,11,33,18.00
2014,09,17,11,34,17.90
2014,09,17,11,35,17.80
2014,09,17,11,36,17.70
2014,09,17,11,37,17.60
2014,09,17,11,38,17.50
2014,09,17,11,39,17.40
2014,09,17,11,40,17.30
2014,09,17,11,41,17.20
2014,09,17,11,42,17.00
2014,09,17,11,43,16.90
2014,09,17,11,44,16.90
2014,09,17,11,45,16.90
2014,09,17,11,46,16.80
2014,09,17,11,47,16.80
2014,09,17,11,48,16.80
2014,09,17,11,49,16.80
2014,09,17,11,50,16.80
2014,09,17,11,51,16.70
2014,09,17,11,52,16.70
2014,09,17,11,53,16.80
2014,09,17,11,54,16.80
2014,09,17,11,55,16.70
2014,09,17,11,56,16.70
2014,09,17,11,57,16.70
2014,09,17,11,58,16.70
2014,09,17,11,59,16.70
2014,09,17,12,00,16.70
2014,09,17,12,01,16.70
2014,09,17,12,02,16.80
2014,09,17,12,03,16.80
2014,09,17,12,04,16.80
2014,09,17,12,05,16.80
2014,09,17,12,06,16.80
2014,09,17,12,07,16.80
2014,09,17,12,08,16.80
2014,09,17,12,09,16.70
2014,09,17,12,10,16.70
2014,09,17,12,11,16.60
2014,09,17,12,12,16.60
2014,09,17,12,13,16.50
2014,09,17,12,14,16.50
2014,09,17,12,15,16.40
2014,09,17,12,16,16.40
2014,09,17,12,17,16.40
2014,09,17,12,18,16.40
2014,09,17,12,19,16.40
2014,09,17,12,20,16.50
2014,09,17,12,21,16.50
2014,09,17,12,22,16.50
2014,09,17,12,23,16.50
2014,09,17,12,24,16.50
2014,09,17,12,25,16.60
2014,09,17,12,26,16.60
2014,09,17,12,27,16.60
2014,09,17,12,28,16.60
2014,09,17,12,29,16.70
2014,09,17,12,30,16.70
2014,09,17,12,31,16.80
2014,09,17,12,32,16.80
2014,09,17,12,33,16.90
2014,09,17,12,34,17.00
2014,09,17,12,35,17.10
2014,09,17,12,36,17.20
2014,09,17,12,37,17.20
2014,09,17,12,38,17.20
2014,09,17,12,39,17.30
2014,09,17,12,40,17.30
2014,09,17,12,41,17.30
2014,09,17,12,42,17.30
2014,09,17,12,43,17.30
2014,09,17,12,44,17.40
2014,09,17,12,45,17.40
2014,09,17,12,46,17.40
2014,09,17,12,47,17.50
2014,09,17,12,48,17.50
2014,09,17,12,49,17.50
2014,09,17,12,50,17.50
2014,09,17,12,51,17.60
2014,09,17,12,52,17.60
2014,09,17,12,53,17.60
2014,09,17,12,54,17.60
2014,09,17,12,55,17.60
2014,09,17,12,56,17.60
2014,09,17,12,57,17.60
2014,09,17,12,58,17.60
2014,09,17,12,59,17.60
2014,09,17,13,00,17.60
2014,09,17,13,01,17.60
2014,09,17,13,02,17.70
2014,09,17,13,03,17.70
2014,09,17,13,04,17.70
2014,09,17,13,05,17.70
2014,09,17,13,06,17.70
2014,09,17,13,07,17.70
2014,09,17,13,08,17.80
2014,09,17,13,09,17.80
2014,09,17,13,10,17.80
2014,09,17,13,11,17.80
2014,09,17,13,12,17.90
2014,09,17,13,13,17.90
2014,09,17,13,14,18.00
2014,09,17,13,15,18.10
2014,09,17,13,16,18.10
2014,09,17,13,17,18.20
2014,09,17,13,18,18.20
2014,09,17,13,19,18.30
2014,09,17,13,20,18.30
2014,09,17,13,21,18.30
2014,09,17,13,22,18.40
2014,09,17,13,23,18.40
2014,09,17,13,24,18.40
2014,09,17,13,25,18.50
2014,09,17,13,26,18.50
2014,09,17,13,27,18.60
2014,09,17,13,28,18.70
2014,09,17,13,29,18.70
2014,09,17,13,30,18.70
2014,09,17,13,31,18.70
2014,09,17,13,32,18.80
2014,09,17,13,33,18.80
2014,09,17,13,34,18.70
2014,09,17,13,35,18.70
2014,09,17,13,36,18.70
2014,09,17,13,37,18.70
2014,09,17,13,38,18.70
2014,09,17,13,39,18.70
2014,09,17,13,40,18.70
2014,09,17,13,41,18.70
2014,09,17,13,42,18.80
2014,09,17,13,43,18.80
2014,09,17,13,44,18.80
2014,09,17,13,45,18.80
2014,09,17,13,46,18.80
2014,09,17,13,47,18.70
2014,09,17,13,48,18.70
2014,09,17,13,49,18.70
2014,09,17,13,50,18.70
2014,09,17,13,51,18.80
2014,09,17,13,52,18.80
2014,09,17,13,53,18.80
2014,09,17,13,54,18.80
2014,09,17,13,55,18.80
2014,09,17,13,56,18.80
2014,09,17,13,57,18.70
2014,09,17,13,58,18.70
2014,09,17,13,59,18.80
2014,09,17,14,00,18.80
2014,09,17,14,01,18.80
2014,09,17,14,02,18.90
2014,09,17,14,03,18.90
2014,09,17,14,04,18.90
2014,09,17,14,05,18.90
2014,09,17,14,06,18.90
2014,09,17,14,07,19.00
2014,09,17,14,08,19.00
2014,09,17,14,09,19.10
2014,09,17,14,10,19.10
2014,09,17,14,11,19.10
2014,09,17,14,12,19.10
2014,09,17,14,13,19.20
2014,09,17,14,14,19.20
2014,09,17,14,15,19.20
2014,09,17,14,16,19.30
2014,09,17,14,17,19.30
2014,09,17,14,18,19.40
2014,09,17,14,19,19.40
2014,09,17,14,20,19.40
2014,09,17,14,21,19.40
2014,09,17,14,22,19.50
2014,09,17,14,23,19.50
2014,09,17,14,24,19.50
2014,09,17,14,25,19.50
2014,09,17,14,26,19.50
2014,09,17,14,27,19.50
2014,09,17,14,28,19.60
2014,09,17,14,29,19.50
2014,09,17,14,30,19.50
2014,09,17,14,31,19.40
2014,09,17,14,32,19.40
2014,09,17,14,33,19.30
2014,09,17,14,34,19.30
2014,09,17,14,35,19.30
2014,09,17,14,36,19.30
2014,09,17,14,37,19.20
2014,09,17,14,38,19.10
2014,09,17,14,39,19.10
2014,09,17,14,40,19.00
2014,09,17,14,41,19.00
2014,09,17,14,42,18.90
2014,09,17,14,43,18.80
2014,09,17,14,44,18.80
2014,09,17,14,45,18.80
2014,09,17,14,46,18.80
2014,09,17,14,47,18.80
2014,09,17,14,48,18.80
2014,09,17,14,49,18.80
2014,09,17,14,50,18.80
2014,09,17,14,51,18.80
2014,09,17,14,52,18.80
2014,09,17,14,53,18.70
2014,09,17,14,54,18.70
2014,09,17,14,55,18.60
2014,09,17,14,56,18.50
2014,09,17,14,57,18.50
2014,09,17,14,58,18.50
2014,09,17,14,59,18.50
2014,09,17,15,00,18.40
2014,09,17,15,01,18.40
2014,09,17,15,02,18.40
2014,09,17,15,03,18.40
2014,09,17,15,04,18.40
2014,09,17,15,05,18.40
2014,09,17,15,06,18.40
2014,09,17,15,07,18.40
2014,09,17,15,08,18.40
2014,09,17,15,09,18.40
2014,09,17,15,10,18.40
2014,09,17,15,11,18.40
2014,09,17,15,12,18.40
2014,09,17,15,13,18.40
2014,09,17,15,14,18.40
2014,09,17,15,15,18.40
2014,09,17,15,16,18.40
2014,09,17,15,17,18.50
2014,09,17,15,18,18.50
2014,09,17,15,19,18.50
2014,09,17,15,20,18.60
2014,09,17,15,21,18.60
2014,09,17,15,22,18.60
2014,09,17,15,23,18.60
2014,09,17,15,24,18.70
2014,09,17,15,25,18.70
2014,09,17,15,26,18.70
2014,09,17,15,27,18.70
2014,09,17,15,28,18.70
2014,09,17,15,29,18.80
2014,09,17,15,30,18.80
2014,09,17,15,31,18.80
2014,09,17,15,32,18.80
2014,09,17,15,33,18.90
2014,09,17,15,34,18.90
2014,09,17,15,35,18.90
2014,09,17,15,36,18.90
2014,09,17,15,37,18.90
2014,09,17,15,38,18.90
2014,09,17,15,39,18.80
2014,09,17,15,40,18.80
2014,09,17,15,41,18.80
2014,09,17,15,42,18.80
2014,09,17,15,43,18.80
2014,09,17,15,44,18.80
2014,09,17,15,45,18.80
2014,09,17,15,46,18.80
2014,09,17,15,47,18.80
2014,09,17,15,48,18.80
2014,09,17,15,49,18.80
2014,09,17,15,50,18.80
2014,09,17,15,51,18.80
2014,09,17,15,52,18.80
2014,09,17,15,53,18.80
2014,09,17,15,54,18.70
2014,09,17,15,55,18.70
2014,09,17,15,56,18.80
2014,09,17,15,57,18.80
2014,09,17,15,58,18.80
2014,09,17,15,59,18.80
2014,09,17,16,00,18.80
2014,09,17,16,01,18.80
2014,09,17,16,02,18.80
2014,09,17,16,03,18.80
2014,09,17,16,04,18.80
2014,09,17,16,05,18.80
2014,09,17,16,06,18.80
2014,09,17,16,07,18.80
2014,09,17,16,08,18.80
2014,09,17,16,09,18.80
2014,09,17,16,10,18.80
2014,09,17,16,11,18.80
2014,09,17,16,12,18.80
2014,09,17,16,13,18.80
2014,09,17,16,14,18.90
2014,09,17,16,15,18.90
2014,09,17,16,16,18.90
2014,09,17,16,17,18.90
2014,09,17,16,18,19.00
2014,09,17,16,19,19.00
2014,09,17,16,20,19.10
2014,09,17,16,21,19.10
2014,09,17,16,22,19.20
2014,09,17,16,23,19.20
2014,09,17,16,24,19.20
2014,09,17,16,25,19.20
2014,09,17,16,26,19.30
2014,09,17,16,27,19.30
2014,09,17,16,28,19.30
2014,09,17,16,29,19.30
2014,09,17,16,30,19.30
2014,09,17,16,31,19.30
2014,09,17,16,32,19.40
2014,09,17,16,33,19.40
2014,09,17,16,34,19.40
2014,09,17,16,35,19.40
2014,09,17,16,36,19.40
2014,09,17,16,37,19.40
2014,09,17,16,38,19.40
2014,09,17,16,39,19.40
2014,09,17,16,40,19.30
2014,09,17,16,41,19.30
2014,09,17,16,42,19.30
2014,09,17,16,43,19.30
2014,09,17,16,44,19.30
2014,09,17,16,45,19.30
2014,09,17,16,46,19.30
2014,09,17,16,47,19.30
2014,09,17,16,48,19.30
2014,09,17,16,49,19.30
2014,09,17,16,50,19.20
2014,09,17,16,51,19.20
2014,09,17,16,52,19.20
2014,09,17,16,53,19.20
2014,09,17,16,54,19.20
2014,09,17,16,55,19.20
2014,09,17,16,56,19.10
2014,09,17,16,57,19.10
2014,09,17,16,58,19.10
2014,09,17,16,59,19.10
2014,09,17,17,00,19.10
2014,09,17,17,01,19.10
2014,09,17,17,02,19.10
2014,09,17,17,03,19.10
2014,09,17,17,04,19.10
2014,09,17,17,05,19.10
2014,09,17,17,06,19.00
2014,09,17,17,07,19.00
2014,09,17,17,08,19.00
2014,09,17,17,09,19.00
2014,09,17,17,10,19.00
2014,09,17,17,11,19.00
2014,09,17,17,12,18.90
2014,09,17,17,13,18.90
2014,09,17,17,14,18.90
2014,09,17,17,15,18.90
2014,09,17,17,16,18.90
2014,09,17,17,17,18.90
2014,09,17,17,18,18.90
2014,09,17,17,19,18.90